Location: Grantsboro
(35.1404°N, 76.8424°W)
Time: 22:17:40
(UTC+00:00)

STARLINK-35 - Pass Details

Date: 18 January 2020
Orbit: 528 x 531 km, 53.0° (Epoch: 18 February)

Event Time Altitude Azimuth Distance (km) Brightness Sun altitude
Exits shadow 11:35:51 - 241° (WSW) 2,641 6.7 -8.1°
Reaches altitude 10° 11:38:07 10° 249° (WSW) 1,767 5.8 -7.7°
Maximum altitude 11:41:55 42° 321° (NW) 767 4.0 -7.0°
Drops below altitude 10° 11:45:46 10° 33° (NNE) 1,777 6.4 -6.2°
Sets 11:48:04 0° 40° (NE) 2,671 7.4 -5.8°
